SV2BZQ-2 Thessalonik GR current weather conditions

sailwx.info

Wind from 321 at 2 knots gusting 6

Air temperature 26.1° C
Dewpoint 12.5° C

Last reported at 2017-Aug-23 09:01 UTC.
Time now 2017-Aug-23 09:49 UTC

Location: N 40°41' E 022°51'.
View on Google Maps.

See reports from other nearby stations

  
Tides and Currents Weather Stations Pressure Air Temp Water Temp Dewpoint Dewpoint Depression Visibility Wind Speed Wind Dir Waves Ship Positions
date/time (UTC)wind fromknots sea level pressurealtimeterstation pressurevisibilityair tempwater tempwave heightnotes
2017-Aug-23 09:01 321 2 gusting 6 26.1
2017-Aug-23 08:46 310 0 gusting 8 25.6
2017-Aug-23 08:31 319 4 gusting 9 25.0
2017-Aug-23 08:16 284 4 gusting 10 24.4
2017-Aug-23 08:01 298 5 gusting 13 24.4
2017-Aug-23 07:45 321 3 gusting 10 24.4
2017-Aug-23 07:16 291 4 gusting 9 23.9
2017-Aug-23 07:01 310 3 gusting 10 23.3
2017-Aug-23 06:53 317 6 gusting 12 23.3
2017-Aug-23 06:49 336 3 gusting 12 23.3
2017-Aug-23 06:43 337 5 gusting 12 23.3
2017-Aug-23 06:36 315 5 gusting 10 22.8
2017-Aug-23 06:34 005 5 gusting 10 23.3
2017-Aug-23 06:29 22.8
2017-Aug-23 06:22 342 4 gusting 9 22.8
2017-Aug-23 06:19 317 4 gusting 12 22.8
2017-Aug-23 06:12 013 4 gusting 9 22.2
2017-Aug-23 06:09 029 4 gusting 10 22.2
2017-Aug-23 06:04 307 4 gusting 9 21.7
2017-Aug-23 05:58 341 4 gusting 10 21.7
2017-Aug-23 05:53 318 3 gusting 10 21.1
2017-Aug-23 05:48 346 5 gusting 10 20.6
2017-Aug-23 05:44 027 4 gusting 10 20.6
2017-Aug-23 05:39 301 2 gusting 7 20.0
2017-Aug-23 05:33 327 2 gusting 7 19.4
2017-Aug-23 05:28 296 1 gusting 3 18.9
2017-Aug-23 05:22 298 1 gusting 3 18.9
2017-Aug-23 05:19 295 1 gusting 4 18.3
2017-Aug-23 05:12 309 1 gusting 4 18.3
2017-Aug-23 05:09 310 1 gusting 3 18.3
2017-Aug-23 05:04 296 2 gusting 4 17.8
2017-Aug-23 04:57 296 2 gusting 6 17.8
2017-Aug-23 04:53 298 2 gusting 6 17.8
2017-Aug-23 04:47 298 2 gusting 6 17.2
2017-Aug-23 04:45 295 2 gusting 4 17.8
2017-Aug-23 04:39 291 2 gusting 6 17.2
2017-Aug-23 04:35 290 3 gusting 6 17.2
2017-Aug-23 04:28 300 2 gusting 6 17.2
2017-Aug-23 04:22 303 2 gusting 6 16.7
2017-Aug-23 04:19 306 2 gusting 6 16.7
2017-Aug-23 04:14 311 3 gusting 6 16.7
2017-Aug-23 04:07 309 3 gusting 6 16.7
2017-Aug-23 04:03 298 2 gusting 6 16.7
2017-Aug-23 03:55 303 2 gusting 4 16.7
2017-Aug-23 03:49 302 3 gusting 6 16.7
2017-Aug-23 03:45 282 2 gusting 6 16.7
2017-Aug-23 03:38 293 2 gusting 6 16.7
2017-Aug-23 03:32 297 2 gusting 4 16.7
2017-Aug-23 03:29 297 2 gusting 6 16.7
2017-Aug-23 03:23 297 2 gusting 4 16.7
2017-Aug-23 03:19 306 2 gusting 4 16.7
2017-Aug-23 03:13 300 1 gusting 4 16.7
2017-Aug-23 03:04 296 1 gusting 4 17.2
2017-Aug-23 02:59 295 1 gusting 4 16.7
2017-Aug-23 02:52 299 0 gusting 2 17.2
2017-Aug-23 02:48 299 17.2
2017-Aug-23 02:44 298 16.7
2017-Aug-23 02:39 299 0 gusting 2 17.2
2017-Aug-23 02:34 299 0 gusting 3 17.2
2017-Aug-23 02:28 299 1 gusting 3 17.2
2017-Aug-23 02:22 299 1 gusting 3 17.2
2017-Aug-23 02:18 300 1 gusting 3 17.2
2017-Aug-23 02:14 300 2 gusting 3 17.2
2017-Aug-23 02:08 297 2 gusting 4 17.8
2017-Aug-23 02:04 296 1 gusting 4 17.8
2017-Aug-23 01:59 298 0 gusting 2 17.2
2017-Aug-23 01:54 298 17.2
2017-Aug-23 01:48 298 1 gusting 3 17.2
2017-Aug-23 01:44 298 1 gusting 3 17.8
2017-Aug-23 01:39 298 1 gusting 3 17.2
2017-Aug-23 01:33 299 0 gusting 5 17.2
2017-Aug-23 01:29 299 1 gusting 5 17.2
2017-Aug-23 01:23 300 2 gusting 6 17.2
2017-Aug-23 01:19 299 2 gusting 6 17.2
2017-Aug-23 01:14 298 2 gusting 4 17.2
2017-Aug-23 01:09 300 2 gusting 4 17.2
2017-Aug-23 01:03 298 2 gusting 4 17.8
2017-Aug-23 01:00 302 2 gusting 4 17.8
2017-Aug-23 00:55 302 2 gusting 4 17.8
2017-Aug-23 00:49 296 1 gusting 4 17.8
2017-Aug-23 00:44 298 1 gusting 3 18.3
2017-Aug-23 00:39 289 2 gusting 3 18.3
2017-Aug-23 00:34 279 1 gusting 5 18.3
2017-Aug-23 00:29 269 1 gusting 5 18.9
2017-Aug-23 00:24 260 0 gusting 1 18.9
2017-Aug-23 00:19 259 19.4
2017-Aug-23 00:13 257 19.4
2017-Aug-23 00:09 257 19.4
2017-Aug-23 00:03 256 20.0
2017-Aug-22 23:59 256 20.0
2017-Aug-22 23:53 256 20.0
2017-Aug-22 23:49 256 20.0
2017-Aug-22 23:43 256 20.0
2017-Aug-22 23:39 256 20.6
2017-Aug-22 23:33 256 20.6
2017-Aug-22 23:29 256 20.6
2017-Aug-22 23:25 256 20.6
2017-Aug-22 23:18 256 20.6
2017-Aug-22 23:14 256 20.6
2017-Aug-22 23:08 256 20.6
2017-Aug-22 23:04 256 20.6
2017-Aug-22 22:58 256 20.6
2017-Aug-22 22:54 256 20.6
2017-Aug-22 22:48 256 20.6
2017-Aug-22 22:44 256 20.6
2017-Aug-22 22:39 256 20.6
2017-Aug-22 22:33 257 20.6
2017-Aug-22 22:29 257 21.1
2017-Aug-22 22:23 256 21.1
2017-Aug-22 22:19 256 21.1
2017-Aug-22 22:13 256 21.1
2017-Aug-22 22:09 257 21.1
2017-Aug-22 22:05 256 21.1
2017-Aug-22 21:59 257 21.1
2017-Aug-22 21:55 256 21.1
2017-Aug-22 21:48 253 21.7
2017-Aug-22 21:44 254 21.7
2017-Aug-22 21:38 254 22.2
2017-Aug-22 21:34 254 22.2
2017-Aug-22 21:29 254 22.2
2017-Aug-22 21:24 298 22.8
2017-Aug-22 21:18 299 0 gusting 3 22.8
2017-Aug-22 21:14 299 0 gusting 3 22.8
2017-Aug-22 21:08 294 22.8
2017-Aug-22 21:04 304 0 gusting 3 23.3
2017-Aug-22 20:58 303 1 gusting 4 23.3
2017-Aug-22 20:55 300 0 gusting 4 23.3
2017-Aug-22 20:49 284 1 23.3
2017-Aug-22 20:44 310 2 gusting 6 23.3
2017-Aug-22 20:38 321 4 gusting 8 23.3
2017-Aug-22 20:34 300 3 gusting 7 23.3
2017-Aug-22 20:28 321 2 gusting 9 23.9
2017-Aug-22 20:24 005 4 gusting 8 23.9
2017-Aug-22 20:18 309 6 gusting 11 23.9
2017-Aug-22 20:14 327 5 gusting 11 23.9
2017-Aug-22 20:10 318 5 gusting 10 23.9
2017-Aug-22 20:04 310 5 gusting 12 23.9
2017-Aug-22 19:59 326 6 gusting 12 23.9
2017-Aug-22 19:54 23.9
2017-Aug-22 19:49 323 6 gusting 15 23.9
2017-Aug-22 19:44 333 6 gusting 13 23.9
2017-Aug-22 19:40 323 6 gusting 13 23.9
2017-Aug-22 19:34 302 6 gusting 12 23.9
2017-Aug-22 19:29 311 5 gusting 12 24.4
2017-Aug-22 19:25 329 5 gusting 10 23.9
2017-Aug-22 19:19 355 4 gusting 9 24.4
2017-Aug-22 19:14 344 3 gusting 9 24.4
2017-Aug-22 19:08 026 4 gusting 9 24.4
2017-Aug-22 19:04 309 5 gusting 9 24.4
2017-Aug-22 18:58 346 4 gusting 9 24.4
2017-Aug-22 18:54 355 4 gusting 8 24.4
2017-Aug-22 18:49 343 5 gusting 11 25.0
2017-Aug-22 18:43 323 5 gusting 10 25.0
2017-Aug-22 18:39 324 4 gusting 10 25.0
2017-Aug-22 18:33 344 2 gusting 8 25.0
2017-Aug-22 18:29 25.0
2017-Aug-22 18:24 355 0 gusting 5 25.0
2017-Aug-22 18:19 344 1 gusting 6 25.0
2017-Aug-22 18:13 338 2 gusting 7 25.6
2017-Aug-22 18:09 011 2 gusting 7 25.0
2017-Aug-22 18:05 346 2 gusting 10 25.6
2017-Aug-22 17:58 317 3 gusting 10 25.6
2017-Aug-22 17:54 335 3 gusting 9 25.6
2017-Aug-22 17:48 339 3 gusting 11 26.1
2017-Aug-22 17:44 355 5 gusting 11 26.1
2017-Aug-22 17:39 331 5 gusting 12 25.6
2017-Aug-22 17:34 321 4 gusting 12 26.1
2017-Aug-22 17:30 341 4 gusting 10 26.1
2017-Aug-22 17:23 317 4 gusting 11 26.7
2017-Aug-22 17:19 326 4 gusting 8 26.7
2017-Aug-22 17:13 336 3 gusting 10 26.7
2017-Aug-22 17:09 336 5 gusting 10 26.7
2017-Aug-22 17:03 306 5 gusting 12 26.7
2017-Aug-22 16:59 265 5 gusting 12 26.7
2017-Aug-22 16:54 318 2 gusting 11 26.7
2017-Aug-22 16:49 325 6 gusting 13 27.2
2017-Aug-22 16:43 306 6 gusting 13 27.2
2017-Aug-22 16:40 282 6 gusting 13 27.2
2017-Aug-22 16:34 304 5 gusting 13 27.8
2017-Aug-22 16:29 326 6 gusting 12 27.8
2017-Aug-22 16:24 288 6 gusting 12 27.8
2017-Aug-22 16:19 343 6 gusting 12 27.8
2017-Aug-22 16:14 327 6 gusting 13 27.8
2017-Aug-22 16:10 312 6 gusting 13 28.3
2017-Aug-22 16:04 334 6 gusting 13 28.3
2017-Aug-22 15:59 318 5 gusting 12 28.3
2017-Aug-22 15:53 315 5 gusting 11 28.3
2017-Aug-22 15:49 348 5 gusting 11 28.3
2017-Aug-22 15:43 333 6 gusting 12 28.3
2017-Aug-22 15:39 283 6 gusting 12 28.9
2017-Aug-22 15:34 320 6 gusting 12 28.9
2017-Aug-22 15:28 336 5 gusting 12 28.9
2017-Aug-22 15:24 338 5 gusting 13 28.9
2017-Aug-22 15:18 291 4 gusting 13 28.9
2017-Aug-22 15:14 317 3 gusting 7 28.9
2017-Aug-22 15:10 313 3 gusting 8 28.9
2017-Aug-22 15:03 015 4 gusting 8 28.9
2017-Aug-22 14:59 309 4 gusting 10 28.9
2017-Aug-22 14:55 309 4 gusting 10 28.9
2017-Aug-22 14:14 333 6 gusting 13 28.9
2017-Aug-22 14:08 337 5 gusting 13 28.9
2017-Aug-22 14:05 286 4 gusting 13 28.9
2017-Aug-22 13:59 317 6 gusting 11 28.9
2017-Aug-22 13:54 290 6 gusting 13 28.9
2017-Aug-22 13:49 314 5 gusting 12 28.9
2017-Aug-22 13:44 296 5 gusting 12 28.9
2017-Aug-22 13:38 304 5 gusting 12 28.9
2017-Aug-22 13:34 308 5 gusting 12 28.9
2017-Aug-22 13:28 005 5 gusting 10 28.9
2017-Aug-22 13:24 306 4 gusting 9 28.9
2017-Aug-22 13:20 299 3 gusting 8 28.9
2017-Aug-22 13:13 355 3 gusting 12 28.9
2017-Aug-22 13:09 332 6 gusting 12 28.9
2017-Aug-22 13:03 320 6 gusting 12 28.3
2017-Aug-22 12:59 315 5 gusting 12 28.3
2017-Aug-22 12:53 303 3 gusting 12 28.9
2017-Aug-22 12:49 011 3 gusting 8 28.9
2017-Aug-22 12:45 277 4 gusting 10 28.9
2017-Aug-22 12:39 294 5 gusting 12 28.9
2017-Aug-22 12:35 275 5 gusting 12 28.9
2017-Aug-22 12:28 294 5 gusting 11 28.9
2017-Aug-22 12:24 323 5 gusting 11 28.3
2017-Aug-22 12:18 317 6 gusting 11 28.3
2017-Aug-22 12:14 294 6 gusting 11 28.3
2017-Aug-22 12:10 005 6 gusting 11 28.3
2017-Aug-22 12:03 348 4 gusting 10 28.9
2017-Aug-22 11:59 348 4 gusting 12 28.3
2017-Aug-22 11:53 329 5 gusting 12 28.3
2017-Aug-22 11:49 337 5 gusting 9 28.3
2017-Aug-22 11:43 306 6 gusting 13 28.3
2017-Aug-22 11:39 284 6 gusting 13 28.3
2017-Aug-22 11:35 310 6 gusting 15 28.3
2017-Aug-22 11:30 279 6 gusting 15 27.8
2017-Aug-22 11:24 309 6 gusting 13 27.8
2017-Aug-22 11:19 310 6 gusting 13 27.8
2017-Aug-22 11:14 005 5 gusting 14 27.8
2017-Aug-22 11:09 305 6 gusting 14 27.8
2017-Aug-22 11:04 314 8 gusting 17 27.2
2017-Aug-22 10:59 317 7 gusting 17 27.8
2017-Aug-22 10:54 323 6 gusting 13 27.8
2017-Aug-22 10:49 343 6 gusting 13 27.2
2017-Aug-22 10:43 336 6 gusting 13 27.2
2017-Aug-22 10:39 340 7 gusting 13 27.2
2017-Aug-22 10:35 321 6 gusting 13 26.7
2017-Aug-22 10:29 323 6 gusting 14 27.2
2017-Aug-22 10:25 295 6 gusting 13 27.2
2017-Aug-22 10:19 319 4 gusting 13 26.7
2017-Aug-22 10:14 038 6 gusting 8 26.7
2017-Aug-22 10:04 303 6 gusting 14 26.1
2017-Aug-22 09:49 317 9 gusting 18 25.6
2017-Aug-22 09:34 337 8 gusting 17 25.6
2017-Aug-22 09:19 360 6 gusting 16 24.4
2017-Aug-22 09:04 315 9 gusting 17 24.4
2017-Aug-22 08:58 041 10 gusting 22 24.4
2017-Aug-22 08:54 332 12 gusting 22 23.9
2017-Aug-22 08:48 293 11 gusting 21 23.9
2017-Aug-22 08:44 319 10 gusting 21 23.9
2017-Aug-22 08:39 342 10 gusting 21 23.9
2017-Aug-22 08:33 338 11 gusting 26 23.3
2017-Aug-22 08:29 309 13 gusting 26 23.3
2017-Aug-22 08:23 321 12 gusting 24 23.3
2017-Aug-22 08:18 019 12 gusting 24 23.3
2017-Aug-22 08:13 272 12 gusting 24 23.3
2017-Aug-22 08:09 321 12 gusting 20 23.3
2017-Aug-22 08:05 355 10 gusting 20 23.3
2017-Aug-22 07:58 304 11 gusting 25 23.3
2017-Aug-22 07:54 277 12 gusting 25 23.3
2017-Aug-22 07:48 341 12 gusting 21 22.8
2017-Aug-22 07:44 315 11 gusting 21 22.8
2017-Aug-22 07:38 330 10 gusting 19 22.8
2017-Aug-22 07:34 300 10 gusting 19 22.8
2017-Aug-22 07:30 329 11 gusting 20 22.8
2017-Aug-22 07:23 350 12 gusting 26 22.8
2017-Aug-22 07:19 355 12 gusting 26 22.8
2017-Aug-22 07:13 306 11 gusting 20 22.2
2017-Aug-22 07:09 309 13 gusting 22 22.2
2017-Aug-22 07:04 038 9 gusting 22 21.7
2017-Aug-22 06:59 326 11 gusting 20 22.2
2017-Aug-22 06:55 288 11 gusting 19 22.2
2017-Aug-22 06:49 330 11 gusting 26 21.7
2017-Aug-22 06:44 019 12 gusting 26 21.7
2017-Aug-22 06:38 015 10 gusting 20 21.7
2017-Aug-22 06:34 342 9 gusting 20 21.7
2017-Aug-22 06:28 350 10 gusting 19 21.7
2017-Aug-22 06:24 323 10 gusting 19 21.7
2017-Aug-22 06:20 013 8 gusting 20 21.1
2017-Aug-22 06:14 314 10 gusting 20 21.7
2017-Aug-22 06:08 295 11 gusting 19 21.1
2017-Aug-22 06:04 334 10 gusting 19 21.1
2017-Aug-22 06:00 299 10 gusting 19 21.1
2017-Aug-22 05:54 015 9 gusting 25 21.1
2017-Aug-22 05:50 323 9 gusting 25 21.1
2017-Aug-22 05:44 320 10 gusting 22 20.6
2017-Aug-22 05:39 298 10 gusting 22 20.6
2017-Aug-22 05:33 296 10 gusting 23 20.6
2017-Aug-22 05:29 323 10 gusting 23 20.6
2017-Aug-22 05:25 355 11 gusting 18 20.6
2017-Aug-22 05:19 278 11 gusting 19 20.6
2017-Aug-22 05:15 310 11 gusting 21 20.6
2017-Aug-22 05:09 303 11 gusting 21 20.6
2017-Aug-22 05:04 337 10 gusting 20 20.6
2017-Aug-22 04:58 013 11 gusting 20 20.6
2017-Aug-22 04:54 329 10 gusting 20 20.6
2017-Aug-22 04:48 338 11 gusting 25 20.6
2017-Aug-22 04:44 318 10 gusting 25 20.0
2017-Aug-22 04:40 005 9 gusting 21 20.0
2017-Aug-22 04:35 321 9 gusting 21 20.0
2017-Aug-22 04:30 310 8 gusting 18 20.0
2017-Aug-22 04:25 009 9 gusting 18 20.0
2017-Aug-22 04:20 303 8 gusting 17 20.0
2017-Aug-22 04:15 337 8 gusting 18 20.0
2017-Aug-22 04:09 300 7 gusting 18 20.0
2017-Aug-22 04:05 011 7 gusting 17 20.0
2017-Aug-22 04:00 338 7 gusting 15 20.0
2017-Aug-22 03:55 030 7 gusting 15 20.0
2017-Aug-22 03:49 015 8 gusting 16 20.0
2017-Aug-22 03:44 304 6 gusting 16 20.0
2017-Aug-22 03:39 341 6 gusting 14 20.0
2017-Aug-22 03:35 342 6 gusting 14 20.0
2017-Aug-22 03:29 339 6 gusting 15 20.0
2017-Aug-22 03:24 346 6 gusting 15 20.0
2017-Aug-22 03:18 355 6 gusting 17 20.0
2017-Aug-22 03:14 348 6 gusting 17 20.0
2017-Aug-22 03:08 341 6 gusting 15 20.0
2017-Aug-22 03:04 346 6 gusting 15 20.0
2017-Aug-22 02:58 032 6 gusting 19 20.0
2017-Aug-22 02:54 310 6 gusting 19 20.0
2017-Aug-22 02:48 349 7 gusting 16 20.0
2017-Aug-22 02:44 318 7 gusting 16 20.0
2017-Aug-22 02:39 355 6 gusting 15 20.6
2017-Aug-22 02:33 338 6 gusting 16 20.6
2017-Aug-22 02:29 339 7 gusting 16 20.6
2017-Aug-22 02:23 355 6 gusting 16 20.0
2017-Aug-22 02:19 009 6 gusting 17 20.6
2017-Aug-22 02:13 309 6 gusting 17 20.6
2017-Aug-22 02:09 338 6 gusting 14 20.6
2017-Aug-22 02:03 302 6 gusting 14 20.6
2017-Aug-22 01:59 014 7 gusting 14 20.6
2017-Aug-22 01:53 298 8 gusting 16 20.6
2017-Aug-22 01:49 342 9 gusting 18 20.6
2017-Aug-22 01:45 310 10 gusting 18 20.6
2017-Aug-22 01:39 350 9 gusting 18 20.6
2017-Aug-22 01:35 026 8 gusting 18 20.6
2017-Aug-22 01:28 303 9 gusting 19 20.6
2017-Aug-22 01:24 015 10 gusting 19 20.6
2017-Aug-22 01:19 360 11 gusting 20 20.6
2017-Aug-22 01:14 015 10 gusting 20 20.6
2017-Aug-22 01:08 310 10 gusting 19 20.6
2017-Aug-22 01:04 328 11 gusting 21 20.6
2017-Aug-22 01:00 311 11 gusting 21 20.6
2017-Aug-22 00:54 355 10 gusting 19 20.6
2017-Aug-22 00:50 273 9 gusting 19 20.6
2017-Aug-22 00:44 011 9 gusting 19 20.6
2017-Aug-22 00:40 20.6
2017-Aug-22 00:33 20.6
2017-Aug-22 00:30 324 8 gusting 17 20.6
2017-Aug-22 00:23 306 8 gusting 16 20.6
2017-Aug-22 00:19 338 8 gusting 16 20.6
2017-Aug-22 00:13 290 9 gusting 16 20.6
2017-Aug-22 00:09 326 10 gusting 16 20.6
2017-Aug-22 00:03 308 9 gusting 18 20.6
2017-Aug-21 23:59 317 8 gusting 18 21.1
2017-Aug-21 23:55 318 9 gusting 20 21.1
2017-Aug-21 23:48 334 10 gusting 20 21.1
2017-Aug-21 23:44 355 10 gusting 19 21.1
2017-Aug-21 23:38 319 9 gusting 19 21.1
2017-Aug-21 23:34 349 8 gusting 18 21.1
2017-Aug-21 23:29 355 8 gusting 19 21.1
2017-Aug-21 23:24 302 9 gusting 20 21.1
2017-Aug-21 23:18 327 10 gusting 19 21.1
2017-Aug-21 23:14 319 10 gusting 20 21.7
2017-Aug-21 23:08 313 10 gusting 20 21.7
2017-Aug-21 23:04 344 11 gusting 22 21.7
2017-Aug-21 22:58 338 9 gusting 22 21.7
2017-Aug-21 22:54 302 8 gusting 18 21.7
2017-Aug-21 22:49 331 8 gusting 21 21.1
2017-Aug-21 22:44 300 10 gusting 21 21.7
2017-Aug-21 22:38 310 10 gusting 16 21.7
2017-Aug-21 22:34 308 9 gusting 16 21.7
2017-Aug-21 22:28 310 8 gusting 16 21.7
2017-Aug-21 22:24 311 8 gusting 17 21.7
2017-Aug-21 22:20 344 9 gusting 17 21.7
2017-Aug-21 22:13 315 9 gusting 20 21.7
2017-Aug-21 22:09 300 8 gusting 20 21.7
2017-Aug-21 22:03 046 9 gusting 19 21.7
2017-Aug-21 21:59 324 10 gusting 20 21.7
2017-Aug-21 21:53 331 10 gusting 20 21.7
2017-Aug-21 21:49 338 9 gusting 16 22.2
2017-Aug-21 21:43 302 9 gusting 22 22.2
2017-Aug-21 21:39 315 10 gusting 22 22.2
2017-Aug-21 21:34 22.2
2017-Aug-21 21:28 309 9 gusting 18 22.2
2017-Aug-21 21:24 317 8 gusting 17 22.2
2017-Aug-21 21:18 333 9 gusting 21 22.2
2017-Aug-21 21:14 355 10 gusting 21 22.2
2017-Aug-21 21:08 005 11 gusting 21 22.2
2017-Aug-21 21:04 322 10 gusting 20 22.2
2017-Aug-21 20:58 029 12 gusting 21 22.2
2017-Aug-21 20:54 009 12 gusting 21 22.2
2017-Aug-21 20:50 314 12 gusting 17 22.2
2017-Aug-21 20:45 346 11 gusting 21 22.2
2017-Aug-21 20:38 333 10 gusting 20 22.2
2017-Aug-21 20:34 290 10 gusting 21 22.8
2017-Aug-21 20:28 355 12 gusting 22 22.8
2017-Aug-21 20:24 344 12 gusting 22 22.8
2017-Aug-21 20:20 338 12 gusting 26 22.8
2017-Aug-21 20:13 298 12 gusting 26 22.8
2017-Aug-21 20:09 326 12 gusting 22 22.8
2017-Aug-21 20:03 318 13 gusting 22 22.8
2017-Aug-21 19:59 321 13 gusting 22 22.8
2017-Aug-21 19:53 310 13 gusting 23 22.8
2017-Aug-21 19:49 315 13 gusting 23 23.3
2017-Aug-21 19:43 302 13 gusting 22 23.3
2017-Aug-21 19:39 23.3
2017-Aug-21 19:33 321 13 gusting 22 23.3
2017-Aug-21 19:29 325 13 gusting 22 23.3
2017-Aug-21 19:25 301 12 gusting 22 23.3
2017-Aug-21 19:18 331 12 gusting 22 23.3
2017-Aug-21 19:14 328 12 gusting 20 23.3
2017-Aug-21 19:08 325 12 gusting 20 23.3
2017-Aug-21 19:04 313 11 gusting 21 23.3
2017-Aug-21 18:58 014 12 gusting 23 23.3
2017-Aug-21 18:54 258 13 gusting 23 23.3
2017-Aug-21 18:48 355 13 gusting 29 23.3
2017-Aug-21 18:45 306 13 gusting 29 23.3
2017-Aug-21 18:40 23.9
2017-Aug-21 18:35 314 12 gusting 21 23.9
2017-Aug-21 18:29 333 12 gusting 21 23.9
2017-Aug-21 18:24 322 12 gusting 24 23.9
2017-Aug-21 18:19 312 13 gusting 26 23.9
2017-Aug-21 18:15 329 13 gusting 26 23.9
2017-Aug-21 18:10 321 13 gusting 26 23.9
2017-Aug-21 18:04 010 13 gusting 21 23.9
2017-Aug-21 18:00 295 13 gusting 24 24.4
2017-Aug-21 17:54 344 13 gusting 25 24.4
2017-Aug-21 17:49 307 12 gusting 25 24.4
2017-Aug-21 17:45 319 11 gusting 20 24.4
2017-Aug-21 17:39 310 12 gusting 23 24.4
2017-Aug-21 17:34 309 12 gusting 23 24.4
2017-Aug-21 17:28 355 11 gusting 22 24.4
2017-Aug-21 17:24 329 11 gusting 22 24.4
2017-Aug-21 17:18 317 12 gusting 21 24.4
2017-Aug-21 17:14 325 10 gusting 21 24.4
2017-Aug-21 17:08 298 11 gusting 23 24.4
2017-Aug-21 17:04 298 11 gusting 23 24.4
2017-Aug-21 16:58 294 10 gusting 17 24.4
2017-Aug-21 16:53 011 10 gusting 17 25.0
2017-Aug-21 16:49 317 9 gusting 17 25.0
2017-Aug-21 16:43 009 9 gusting 19 25.0
2017-Aug-21 16:39 306 9 gusting 19 25.0
2017-Aug-21 16:35 349 10 gusting 16 25.0
2017-Aug-21 16:29 310 11 gusting 20 25.6
2017-Aug-21 16:24 288 9 gusting 20 25.6
2017-Aug-21 16:18 25.6
2017-Aug-21 16:14 346 10 gusting 19 25.6
2017-Aug-21 16:08 300 9 gusting 16 25.6
2017-Aug-21 16:04 323 9 gusting 17 25.6
2017-Aug-21 15:58 344 10 gusting 17 25.6
2017-Aug-21 15:54 298 10 gusting 17 25.6
2017-Aug-21 15:48 315 10 gusting 20 26.1
2017-Aug-21 15:43 315 10 gusting 20 26.1
2017-Aug-21 15:39 317 8 gusting 18 26.1
2017-Aug-21 15:33 344 8 gusting 25 26.7
2017-Aug-21 15:29 015 8 gusting 25 26.7
2017-Aug-21 15:23 302 10 gusting 19 26.7
2017-Aug-21 15:19 341 11 gusting 21 26.7
2017-Aug-21 15:15 330 11 gusting 21 26.7
2017-Aug-21 15:09 329 11 gusting 22 26.7
2017-Aug-21 15:04 281 13 gusting 24 26.7
2017-Aug-21 14:59 317 13 gusting 24 27.2
2017-Aug-21 14:54 298 13 gusting 25 27.2
2017-Aug-21 14:49 339 12 gusting 26 27.2
2017-Aug-21 14:45 302 11 gusting 26 27.8
2017-Aug-21 14:39 009 11 gusting 24 27.8
2017-Aug-21 14:34 317 12 gusting 24 27.8
2017-Aug-21 14:29 336 13 gusting 26 27.8
2017-Aug-21 14:24 325 13 gusting 26 27.8
2017-Aug-21 14:19 319 12 gusting 23 27.8
2017-Aug-21 14:14 325 12 gusting 23 27.8
2017-Aug-21 14:08 355 11 gusting 20 27.8
2017-Aug-21 14:04 311 11 gusting 19 27.8
2017-Aug-21 13:58 031 10 gusting 19 28.3
2017-Aug-21 13:54 355 10 gusting 22 28.3
2017-Aug-21 13:48 339 11 gusting 25 28.3
2017-Aug-21 13:44 321 11 gusting 25 28.3
2017-Aug-21 13:40 298 10 gusting 22 28.3
2017-Aug-21 13:33 288 12 gusting 22 28.3
2017-Aug-21 13:29 321 13 gusting 22 28.3
2017-Aug-21 13:23 301 12 gusting 22 28.3
2017-Aug-21 13:19 306 11 gusting 20 28.3
2017-Aug-21 13:13 303 9 gusting 19 28.3
2017-Aug-21 13:09 301 8 gusting 18 28.3
2017-Aug-21 13:03 318 11 gusting 19 28.3
2017-Aug-21 12:59 300 11 gusting 22 28.3
2017-Aug-21 12:53 332 10 gusting 22 27.8
2017-Aug-21 12:49 275 10 gusting 20 27.8
2017-Aug-21 12:43 334 12 gusting 23 27.2
2017-Aug-21 12:39 341 13 gusting 23 26.7
2017-Aug-21 12:33 013 12 gusting 22 26.7
2017-Aug-21 12:27 310 9 gusting 21 26.7
2017-Aug-21 12:24 337 12 gusting 23 26.7
2017-Aug-21 12:19 350 13 gusting 24 27.2
2017-Aug-21 12:13 309 12 gusting 24 27.2
2017-Aug-21 12:09 314 13 gusting 23 27.2
2017-Aug-21 12:03 011 11 gusting 23 27.2
2017-Aug-21 11:59 355 9 gusting 19 27.2
2017-Aug-21 11:53 340 9 gusting 21 27.2
2017-Aug-21 11:49 327 11 gusting 21 27.2
2017-Aug-21 11:45 304 8 gusting 23 27.2
2017-Aug-21 11:39 296 11 gusting 24 27.2
2017-Aug-21 11:32 339 10 gusting 21 27.2
2017-Aug-21 11:29 019 11 gusting 21 26.7
2017-Aug-21 11:25 320 13 gusting 25 26.7
2017-Aug-21 11:19 326 13 gusting 25 26.7
2017-Aug-21 11:14 278 13 gusting 24 26.7
2017-Aug-21 11:09 268 11 gusting 20 26.7
2017-Aug-21 11:04 323 11 gusting 20 27.2
2017-Aug-21 10:59 297 10 gusting 20 27.2
2017-Aug-21 10:54 323 10 gusting 18 27.2
2017-Aug-21 10:48 294 11 gusting 19 27.2
2017-Aug-21 10:44 331 12 gusting 21 27.2
2017-Aug-21 10:38 326 11 gusting 21 27.2
2017-Aug-21 10:34 308 9 gusting 17 27.2
2017-Aug-21 10:28 307 7 gusting 17 26.7
2017-Aug-21 10:24 018 7 gusting 13 26.7
2017-Aug-21 10:18 319 6 gusting 13 26.1
2017-Aug-21 10:14 022 3 gusting 13 25.6
2017-Aug-21 10:10 319 1 gusting 8 25.6
2017-Aug-21 10:03 234 1 gusting 5 25.6
2017-Aug-21 10:00 233 2 gusting 7 25.0
2017-Aug-21 09:53 223 4 gusting 7 25.0
2017-Aug-21 09:49 235 4 gusting 6 25.0
2017-Aug-21 09:44 226 3 gusting 7 25.0
2017-Aug-21 09:39 221 2 gusting 7 25.0
2017-Aug-21 09:33 232 2 gusting 7 25.0
2017-Aug-21 09:29 257 3 gusting 7 24.4
2017-Aug-21 09:23 261 3 gusting 6 24.4
2017-Aug-21 09:19 225 3 gusting 6 23.9
2017-Aug-21 09:13 217 3 gusting 8 23.9
2017-Aug-21 09:09 216 3 gusting 8 23.3
2017-Aug-21 09:05 218 3 gusting 8 23.3